Location: Derby
(52.9213°N, 1.4761°W)
Time: 02:03:27
(UTC+01:00)

Vanguard 2 Rocket - Pass Details

Date: 19 May 2025
Orbit: 554 x 3293 km, 32.9° (Epoch: 12 June)

Event Time Altitude Azimuth Distance (km) Brightness Sun altitude
Rises 23:31:20 0° 218° (SW) 7,176 11.2 -14.5°
Reaches altitude 10° 23:37:50 10° 207° (SSW) 5,926 10.6 -14.8°
Maximum altitude 23:49:55 24° 164° (SSE) 4,117 9.6 -15.4°
Drops below altitude 10° 23:58:54 10° 118° (ESE) 4,308 9.9 -15.8°
Sets 00:02:37 0° 104° (ESE) 4,895 10.4 -15.9°
